Location: Manning Provincial Park
(49.0805°N, 120.7632°W)
Time: 15:30:54
(UTC-07:00)

ISS - Visible Passes

Search period start: 22 September 2018 00:00
Search period end: 02 October 2018 00:00
Orbit: 403 x 408 km, 51.6° (Epoch: 23 September)

Date Brightness Start Highest point End Pass type
(mag) Time Alt. Az. Time Alt. Az. Time Alt. Az.
22 Sep -2.5 20:43:07 10° SSW 20:45:13 27° S 20:45:13 27° S visible
23 Sep -2.3 19:51:51 10° SSW 19:54:24 21° SE 19:55:53 16° ESE visible
23 Sep -1.6 21:27:16 10° WSW 21:28:35 22° WSW 21:28:35 22° WSW visible
24 Sep -3.8 20:35:27 10° SW 20:38:42 60° SSE 20:39:04 55° ESE visible
25 Sep -3.2 19:43:46 10° SW 19:46:52 39° SSE 19:49:25 14° E visible
25 Sep -2.2 21:20:01 10° W 21:22:07 35° W 21:22:07 35° W visible
26 Sep -3.8 20:28:03 10° WSW 20:31:20 83° NNW 20:32:20 42° ENE visible
26 Sep -0.4 22:04:48 10° WNW 22:05:01 11° WNW 22:05:01 11° WNW visible
27 Sep -3.8 19:36:07 10° WSW 19:39:25 71° SSE 19:42:28 12° ENE visible
27 Sep -2.4 21:12:48 10° W 21:15:09 39° WNW 21:15:09 39° WNW visible
28 Sep -3.4 20:20:44 10° W 20:24:01 60° N 20:25:13 34° NE visible
28 Sep -0.5 21:57:30 10° WNW 21:57:53 13° WNW 21:57:53 13° WNW visible
29 Sep -3.7 19:28:42 10° WSW 19:32:00 74° NNW 19:35:15 10° ENE visible
29 Sep -2.5 21:05:29 10° WNW 21:07:55 40° NW 21:07:55 40° NW visible
30 Sep -3.3 20:13:26 10° W 20:16:40 52° N 20:17:54 32° ENE visible
30 Sep -0.5 21:50:05 10° WNW 21:50:34 13° WNW 21:50:34 13° WNW visible
01 Oct -3.4 19:21:21 10° W 19:24:37 56° N 19:27:52 10° ENE visible
01 Oct -2.7 20:58:04 10° WNW 21:00:31 43° NW 21:00:31 43° NW visible
